MAS1034 WMKJ-WMKK

Flight info

Callsign MAS1034
Flight time N/A
Altitude 20000
Route SABKA1K SABKA A457 GUPTA GUPTA1H
Aircraft B738/M-SDE2E3FGHIRWXY/LB1

Departure

Time 2026-05-06 00:37
Airport Senai International Airport (WMKJ)

Arrival

Time N/A
Airport Kuala Lumpur International Airport (WMKK)
Time Latitude Longitude Altitude Speed Heading
2026-05-06 00:12 1.63551 103.66778 139 ft 0 kts 252°
2026-05-06 00:29 1.63551 103.66779 139 ft 0 kts 252°
2026-05-06 00:30 1.63551 103.66778 139 ft 0 kts 252°
2026-05-06 00:30 1.63554 103.66788 139 ft 2 kts 251°
2026-05-06 00:31 1.63557 103.66797 139 ft 2 kts 251°
2026-05-06 00:31 1.63564 103.66810 139 ft 2 kts 229°
2026-05-06 00:31 1.63575 103.66820 139 ft 2 kts 213°
2026-05-06 00:31 1.63588 103.66827 139 ft 2 kts 197°
2026-05-06 00:32 1.63603 103.66829 139 ft 2 kts 181°
2026-05-06 00:32 1.63618 103.66827 139 ft 2 kts 164°
2026-05-06 00:32 1.63625 103.66825 139 ft 1 kts 156°
2026-05-06 00:32 1.63627 103.66824 139 ft 0 kts 157°
2026-05-06 00:34 1.63588 103.66842 139 ft 9 kts 153°
2026-05-06 00:34 1.63531 103.66865 139 ft 8 kts 164°
2026-05-06 00:34 1.63472 103.66880 139 ft 8 kts 153°
2026-05-06 00:35 1.63390 103.66914 139 ft 16 kts 135°
2026-05-06 00:35 1.63338 103.67006 139 ft 14 kts 137°
2026-05-06 00:35 1.63233 103.67055 139 ft 22 kts 163°
2026-05-06 00:35 1.63079 103.67107 139 ft 22 kts 162°
2026-05-06 00:36 1.62929 103.67159 139 ft 22 kts 158°
2026-05-06 00:36 1.62785 103.67217 139 ft 22 kts 155°
2026-05-06 00:36 1.62710 103.67326 139 ft 20 kts 82°
2026-05-06 00:36 1.62796 103.67392 139 ft 17 kts 332°
2026-05-06 00:37 1.62913 103.67351 139 ft 22 kts 342°
2026-05-06 00:37 1.63346 103.67199 139 ft 110 kts 340°
2026-05-06 00:37 1.64319 103.66849 232 ft 178 kts 341°
2026-05-06 00:37 1.65528 103.66437 1126 ft 190 kts 342°
2026-05-06 00:38 1.66760 103.65964 2070 ft 199 kts 330°
2026-05-06 00:38 1.67736 103.64944 2775 ft 215 kts 296°
2026-05-06 00:38 1.68304 103.63513 3564 ft 229 kts 291°
2026-05-06 00:38 1.68920 103.62006 4320 ft 244 kts 294°
2026-05-06 00:39 1.69644 103.60434 5091 ft 259 kts 295°
2026-05-06 00:39 1.70452 103.58755 5813 ft 276 kts 295°
2026-05-06 00:39 1.71290 103.57021 6690 ft 284 kts 296°
2026-05-06 00:39 1.72142 103.55244 7637 ft 289 kts 296°
2026-05-06 00:40 1.73016 103.53418 8552 ft 294 kts 296°
2026-05-06 00:40 1.73904 103.51559 9453 ft 300 kts 296°
2026-05-06 00:40 1.74795 103.49688 10334 ft 305 kts 296°
2026-05-06 00:40 1.75733 103.47723 10930 ft 320 kts 296°
2026-05-06 00:41 1.76713 103.45670 11481 ft 337 kts 296°
2026-05-06 00:41 1.77744 103.43512 12019 ft 352 kts 296°
2026-05-06 00:41 1.78803 103.41293 12705 ft 360 kts 296°
2026-05-06 00:41 1.79878 103.39037 13459 ft 366 kts 297°
2026-05-06 00:42 1.80981 103.36722 14247 ft 370 kts 297°
2026-05-06 00:42 1.82094 103.34388 14987 ft 375 kts 297°
2026-05-06 00:42 1.83212 103.32042 15708 ft 379 kts 297°
2026-05-06 00:42 1.84336 103.29680 16404 ft 382 kts 297°
2026-05-06 00:43 1.85490 103.27268 17077 ft 386 kts 297°
2026-05-06 00:43 1.86670 103.24844 17714 ft 391 kts 298°
2026-05-06 00:43 1.87878 103.22392 18365 ft 395 kts 298°
2026-05-06 00:43 1.89087 103.19945 18987 ft 398 kts 298°
2026-05-06 00:44 1.90320 103.17448 19567 ft 402 kts 297°
2026-05-06 00:44 1.91572 103.14913 19859 ft 406 kts 297°
2026-05-06 00:44 1.92822 103.12376 19869 ft 406 kts 297°
2026-05-06 00:44 1.94049 103.09882 19865 ft 404 kts 297°
2026-05-06 00:45 1.95300 103.07339 19864 ft 405 kts 297°
2026-05-06 00:45 1.96539 103.04813 19866 ft 405 kts 297°
2026-05-06 00:45 1.97784 103.02274 19867 ft 405 kts 297°
2026-05-06 00:45 1.99002 102.99788 19865 ft 404 kts 297°
2026-05-06 00:46 2.00244 102.97253 19864 ft 404 kts 297°
2026-05-06 00:46 2.01475 102.94740 19865 ft 405 kts 297°
2026-05-06 00:46 2.02723 102.92194 19866 ft 403 kts 297°
2026-05-06 00:46 2.03944 102.89705 19867 ft 403 kts 297°
2026-05-06 00:47 2.05180 102.87183 19866 ft 403 kts 297°
2026-05-06 00:47 2.06422 102.84644 19867 ft 404 kts 297°
2026-05-06 00:47 2.07637 102.82156 19866 ft 403 kts 297°
2026-05-06 00:47 2.08872 102.79623 19868 ft 403 kts 297°
2026-05-06 00:48 2.10099 102.77106 19866 ft 405 kts 297°
2026-05-06 00:48 2.11330 102.74580 19867 ft 405 kts 297°
2026-05-06 00:48 2.12563 102.72050 19867 ft 404 kts 297°
2026-05-06 00:48 2.13795 102.69525 19865 ft 404 kts 297°
2026-05-06 00:49 2.15016 102.66979 19867 ft 405 kts 295°
2026-05-06 00:49 2.15976 102.64353 19868 ft 406 kts 287°
2026-05-06 00:49 2.16620 102.61594 19868 ft 407 kts 281°
2026-05-06 00:49 2.17065 102.58820 19866 ft 405 kts 278°
2026-05-06 00:50 2.17415 102.56039 19867 ft 406 kts 277°
2026-05-06 00:50 2.17729 102.53215 19867 ft 407 kts 277°
2026-05-06 00:50 2.18029 102.50404 19867 ft 405 kts 277°
2026-05-06 00:50 2.18327 102.47609 19867 ft 406 kts 277°
2026-05-06 00:51 2.18631 102.44817 19868 ft 407 kts 277°
2026-05-06 00:51 2.18943 102.42003 19867 ft 406 kts 277°
2026-05-06 00:51 2.19258 102.39211 19864 ft 408 kts 277°
2026-05-06 00:51 2.19578 102.36381 19861 ft 407 kts 277°
2026-05-06 00:52 2.19896 102.33587 19858 ft 406 kts 277°
2026-05-06 00:52 2.20213 102.30805 19855 ft 406 kts 277°
2026-05-06 00:52 2.20537 102.27967 19855 ft 407 kts 277°
2026-05-06 00:52 2.20855 102.25191 19857 ft 407 kts 277°
2026-05-06 00:53 2.21177 102.22393 19857 ft 406 kts 277°
2026-05-06 00:53 2.21502 102.19553 19854 ft 407 kts 277°
2026-05-06 00:53 2.21816 102.16805 19852 ft 395 kts 277°
2026-05-06 00:53 2.22121 102.14132 19672 ft 384 kts 277°
2026-05-06 00:54 2.22422 102.11483 19303 ft 378 kts 277°
2026-05-06 00:54 2.22718 102.08888 18810 ft 377 kts 277°
2026-05-06 00:54 2.23011 102.06319 18306 ft 376 kts 277°
2026-05-06 00:54 2.23304 102.03722 17786 ft 375 kts 277°
2026-05-06 00:55 2.23596 102.01140 17257 ft 375 kts 277°
2026-05-06 00:55 2.23890 101.98544 16744 ft 374 kts 277°
2026-05-06 00:55 2.24179 101.95991 16226 ft 373 kts 277°
2026-05-06 00:55 2.24469 101.93439 15702 ft 372 kts 277°
2026-05-06 00:56 2.24763 101.90865 15181 ft 371 kts 277°
2026-05-06 00:56 2.25056 101.88308 14648 ft 370 kts 277°
2026-05-06 00:56 2.25342 101.85802 14134 ft 368 kts 277°
2026-05-06 00:56 2.25632 101.83262 13607 ft 367 kts 277°
2026-05-06 00:57 2.25919 101.80750 13085 ft 365 kts 277°
2026-05-06 00:57 2.26205 101.78246 12554 ft 364 kts 277°
2026-05-06 00:57 2.26492 101.75723 12024 ft 362 kts 277°
2026-05-06 00:57 2.26773 101.73246 11526 ft 359 kts 277°
2026-05-06 00:58 2.27050 101.70813 11244 ft 350 kts 277°
2026-05-06 00:58 2.27319 101.68445 11147 ft 335 kts 277°
2026-05-06 00:58 2.27621 101.66196 11070 ft 320 kts 281°
2026-05-06 00:58 2.28253 101.64114 10988 ft 305 kts 298°
2026-05-06 00:59 2.29508 101.62495 10985 ft 287 kts 317°
2026-05-06 00:59 2.30978 101.61167 10989 ft 280 kts 321°
2026-05-06 00:59 2.32448 101.59894 10990 ft 283 kts 320°
2026-05-06 00:59 2.33918 101.58568 10994 ft 283 kts 319°
2026-05-06 01:00 2.35342 101.57225 10993 ft 283 kts 318°
2026-05-06 01:00 2.36748 101.55836 10989 ft 283 kts 313°
2026-05-06 01:00 2.37859 101.54202 10982 ft 286 kts 295°
2026-05-06 01:00 2.38368 101.52254 10779 ft 290 kts 278°
2026-05-06 01:01 2.38538 101.50268 10541 ft 286 kts 274°
2026-05-06 01:01 2.38653 101.48296 10307 ft 283 kts 274°
2026-05-06 01:01 2.38824 101.46365 10069 ft 282 kts 279°
2026-05-06 01:01 2.39364 101.44479 9837 ft 280 kts 295°
2026-05-06 01:02 2.40233 101.42758 9600 ft 279 kts 300°
2026-05-06 01:02 2.41184 101.41045 9359 ft 277 kts 300°
2026-05-06 01:02 2.42085 101.39373 9123 ft 275 kts 300°
2026-05-06 01:02 2.43130 101.37753 8886 ft 274 kts 309°
2026-05-06 01:03 2.44421 101.36373 8648 ft 271 kts 318°
2026-05-06 01:03 2.45816 101.35111 8411 ft 271 kts 319°
2026-05-06 01:03 2.47223 101.33849 8171 ft 269 kts 319°
2026-05-06 01:03 2.48619 101.32604 8005 ft 266 kts 322°
2026-05-06 01:04 2.50155 101.31586 8001 ft 266 kts 334°
2026-05-06 01:04 2.51859 101.30826 8002 ft 267 kts 339°
2026-05-06 01:04 2.53585 101.30141 8000 ft 266 kts 340°
2026-05-06 01:04 2.55299 101.29440 7998 ft 267 kts 339°
2026-05-06 01:05 2.57026 101.28787 8002 ft 266 kts 346°
2026-05-06 01:05 2.58868 101.28455 8001 ft 264 kts 356°
2026-05-06 01:05 2.60706 101.28369 8001 ft 264 kts
2026-05-06 01:05 2.62546 101.28318 8004 ft 264 kts 359°
2026-05-06 01:06 2.64386 101.28243 8003 ft 264 kts 360°
2026-05-06 01:06 2.66230 101.28292 8002 ft 263 kts
2026-05-06 01:06 2.68015 101.28694 8003 ft 263 kts 18°
2026-05-06 01:06 2.69727 101.29378 8001 ft 261 kts 33°